Theta_e
330 331 332 336 339 346 350 349 342 341 341 342 342 342 339 338 335 334 333 330 331 331 330 329 327 325 323 325 326 328 328 325 325 327 326 326 326 324 325 326 324 320 321
338 343 343 343 347 351 348 343 343 343 343 342 341 339 336 333 332 333 332 331 332 331 331 329 328 325 325 325 326 328 327 326 327 327 326 328 328 326 327 327 320 321 321
343 344 346 347 348 347 347 345 344 342 340 338 333 332 331 331 329 329 330 330 329 330 330 329 328 325 325 326 327 327 326 326 327 326 327 326 326 326 328 324 322 322 322
344 346 346 346 347 345 345 343 341 338 334 335 334 332 330 331 330 332 331 331 331 331 330 330 328 327 324 327 326 327 326 327 327 327 327 326 326 327 328 326 325 325 324
345 345 346 345 343 341 340 338 335 336 333 333 330 331 330 329 330 329 330 329 330 330 331 329 328 326 325 327 326 327 327 327 328 327 327 326 326 327 327 327 326 327 326
344 342 341 341 340 338 335 334 334 331 330 331 331 329 329 329 329 330 325 328 327 329 329 328 325 326 327 327 326 326 326 327 328 328 327 328 326 326 325 327 326 324 325
341 341 340 338 337 335 332 330 330 330 332 330 329 329 328 329 330 326 327 327 326 327 327 326 325 327 327 326 326 326 326 327 327 328 326 326 323 325 325 326 328 326 325
338 337 337 335 334 331 330 330 331 330 329 328 328 328 329 327 325 327 328 326 325 326 326 326 327 327 327 326 326 327 327 328 327 326 326 323 324 324 325 326 325 324 324
336 335 334 331 330 330 330 331 330 328 329 328 329 330 328 323 328 327 329 326 325 325 325 327 327 327 325 325 326 328 327 326 326 324 324 325 324 324 325 326 325 324 324
333 332 331 330 330 330 331 331 329 328 330 330 329 329 327 327 327 328 328 328 326 326 325 325 326 325 326 326 327 327 326 326 326 326 325 326 325 324 326 326 325 325 324
333 331 330 329 330 329 331 329 328 329 328 330 330 329 326 328 328 328 327 327 327 327 327 325 326 325 327 328 327 326 326 325 325 327 325 326 326 325 326 326 326 326 324
331 330 329 329 329 328 328 327 329 331 331 330 330 328 326 327 327 327 326 326 326 326 325 326 325 325 328 327 327 326 325 325 324 324 323 324 325 325 326 326 325 324 323
331 331 330 328 328 328 328 328 328 330 330 330 330 328 326 326 326 326 325 325 325 325 325 325 324 325 325 326 327 325 324 324 324 324 323 324 324 325 326 324 325 324 324
331 330 329 329 329 328 328 328 328 329 330 330 329 328 327 326 326 324 324 325 326 324 326 324 324 325 325 324 324 324 323 323 324 323 324 325 323 323 324 324 324 324 322
329 330 330 330 329 328 329 330 329 329 330 329 329 329 328 327 325 323 323 323 324 325 325 324 324 324 324 323 323 322 322 323 322 322 324 324 324 323 323 324 324 322 322
328 328 329 328 329 330 330 330 331 329 329 331 330 329 327 327 324 323 323 324 326 325 324 324 325 324 323 322 322 323 323 323 323 323 323 323 324 323 323 323 322 322 322
328 328 328 330 330 329 329 329 330 331 330 330 330 328 327 326 324 323 323 324 324 324 324 324 323 322 321 322 323 323 323 323 323 324 324 324 324 322 322 321 321 322 322
329 328 330 330 330 328 327 327 327 329 330 330 329 328 326 324 323 323 324 323 324 324 323 322 322 322 322 324 323 323 323 323 323 323 323 324 324 322 324 324 323 322 320
330 330 330 331 331 331 330 329 326 327 329 329 328 326 325 323 323 323 324 324 323 324 324 324 323 323 324 324 324 324 324 323 323 323 323 323 323 323 323 323 322 322 320
330 330 331 331 331 331 331 331 330 328 327 328 326 325 324 323 323 324 324 324 324 323 323 323 323 324 324 325 325 325 325 323 324 323 323 324 323 323 325 325 324 325 324
329 329 330 329 330 330 331 330 329 327 328 328 326 325 324 324 323 325 326 327 326 325 324 324 324 325 326 326 327 326 325 324 325 326 325 325 325 324 325 325 325 326 324
329 329 330 330 329 331 331 331 330 330 330 326 326 326 325 324 324 325 327 328 328 327 326 325 325 326 326 327 327 327 327 326 326 326 325 325 326 324 325 325 325 325 325
329 330 330 330 330 329 331 332 331 331 331 326 326 326 325 325 325 326 326 327 328 328 328 327 326 326 327 327 327 327 327 327 327 327 327 327 327 327 327 327 328 328 327
330 330 330 330 331 331 330 331 331 330 327 329 329 328 330 330 330 330 330 329 330 329 329 329 329 329 328 328 328 328 328 328 327 328 328 328 329 328 329 328 328 327 328
328 330 330 330 331 331 330 331 330 329 329 329 329 329 330 328 329 329 328 327 327 327 328 327 326 326 326 326 326 326 327 327 327 327 328 328 327 327 328 327 328 328 328
328 328 328 326 330 329 330 330 330 330 330 329 329 329 329 328 327 326 326 326 326 326 326 326 325 325 324 325 325 325 325 326 327 327 327 327 327 326 326 325 325 325 325
Wind_Speed
27 25 23 23 26 27 25 22 19 18 19 21 21 19 19 16 11 10 13 14 13 13 14 16 14 14 13 12 15 11 8 10 7 9 9 14 14 14 21 19 16 17 19
22 19 19 23 27 26 23 23 21 20 19 21 19 19 15 12 13 13 11 13 14 16 16 16 14 13 10 12 13 11 7 11 12 14 17 17 16 18 17 18 20 20 20
20 23 25 28 27 27 26 23 24 21 21 18 15 13 14 11 9 9 8 11 14 14 15 13 12 14 13 12 13 12 10 10 15 19 24 20 17 16 18 20 21 21 20
27 27 27 29 29 27 28 27 22 22 18 17 17 13 12 12 10 8 8 9 12 12 12 14 13 13 13 12 13 13 10 14 22 21 23 23 20 18 20 23 24 23 22
29 30 31 27 27 27 24 21 22 22 19 16 16 16 13 10 10 11 10 12 11 10 11 12 12 14 11 13 14 16 16 17 22 23 25 23 21 20 21 21 26 25 23
30 28 28 30 27 26 24 22 20 18 18 17 18 15 11 9 11 11 12 8 6 7 8 10 13 10 8 12 13 14 15 19 23 25 25 25 24 23 24 24 29 30 24
35 32 30 27 26 23 21 19 19 18 20 19 14 11 11 11 10 8 6 3 4 6 10 12 12 7 10 12 13 15 13 11 9 14 20 27 26 26 27 27 31 34 30
32 29 27 25 24 20 20 21 20 19 18 15 12 11 9 8 7 7 5 5 8 12 15 13 11 11 13 12 13 14 15 13 9 9 15 21 21 24 24 27 30 31 28
31 29 25 24 22 22 24 22 20 18 16 16 13 10 7 7 8 8 7 8 9 11 14 12 12 13 15 13 14 18 16 13 10 11 15 14 17 21 24 26 28 27 33
31 31 23 21 21 23 22 22 18 15 15 13 12 10 7 7 9 9 7 5 9 9 12 13 11 12 19 17 14 16 18 13 13 17 19 19 19 18 20 18 22 30 32
31 21 23 19 20 22 21 18 14 13 15 14 12 8 8 8 9 9 7 5 8 10 11 14 12 13 17 19 15 16 16 15 11 21 21 21 21 19 21 20 21 24 29
26 23 20 20 23 22 20 16 16 14 16 15 12 11 6 8 8 8 8 8 8 7 11 14 12 16 18 17 15 13 13 15 13 20 23 24 22 21 20 17 17 20 26
26 22 21 20 23 20 18 20 18 15 17 14 11 10 9 8 7 9 10 9 10 9 13 13 16 16 15 15 14 12 12 15 13 21 23 23 21 17 20 16 19 22 20
25 24 26 21 21 17 16 16 18 17 16 16 14 11 9 10 8 10 11 11 12 9 17 19 19 17 16 13 13 13 14 14 13 19 22 23 20 20 19 14 16 15 17
23 21 25 23 19 18 16 16 15 14 16 17 14 10 6 13 11 8 8 10 13 18 23 21 20 18 17 15 14 13 14 15 14 19 19 24 20 18 18 17 17 17 21
23 24 20 16 16 15 14 14 14 14 14 12 11 8 10 10 13 10 10 15 20 20 20 23 22 19 17 15 12 13 12 12 15 18 19 20 22 18 17 18 18 20 19
23 21 23 21 18 19 17 17 20 19 15 16 12 8 11 12 13 12 12 18 19 17 19 22 20 18 16 11 8 11 12 10 14 17 18 18 19 17 19 18 18 18 17
22 21 22 18 16 19 17 15 17 20 22 20 15 12 15 14 16 15 18 18 17 16 15 18 19 18 15 11 10 11 13 13 14 15 16 17 20 22 18 15 14 12 15
21 22 23 21 18 18 16 16 17 19 21 20 20 20 17 18 17 20 19 14 13 13 13 16 16 18 17 15 13 13 12 14 13 13 13 15 17 16 14 12 10 8 9
19 18 26 21 23 21 18 16 14 16 19 20 23 21 20 23 26 25 20 15 12 12 12 13 16 17 15 12 12 10 9 11 9 12 13 11 13 15 13 12 12 13 15
23 20 24 21 25 22 21 18 17 18 18 19 18 20 20 22 25 22 18 15 14 14 13 15 19 16 15 11 12 11 10 9 8 6 8 12 13 16 16 15 15 19 20
25 27 24 23 21 21 21 21 19 21 21 21 20 20 19 18 21 19 14 13 14 11 11 9 10 10 9 10 9 9 8 8 7 8 6 6 8 15 14 15 16 18 18
25 28 21 20 19 23 22 22 20 21 17 24 25 24 19 15 13 12 10 10 11 6 13 13 12 13 11 9 12 13 13 12 12 10 12 12 10 12 17 16 19 20 20
23 29 27 19 20 19 20 20 21 19 21 26 25 18 12 13 10 9 12 13 10 11 11 16 14 14 13 13 15 15 14 12 9 9 11 12 13 8 9 14 13 14 11
18 31 27 21 22 23 26 26 28 28 28 28 25 24 24 22 20 21 22 21 24 23 21 17 16 15 13 13 10 9 9 8 5 6 8 7 11 14 15 12 14 13 15
15 28 30 25 23 34 33 32 36 36 32 34 32 29 27 27 26 24 23 22 20 19 17 16 14 13 11 9 7 3 2 2 6 9 12 14 15 19 21 23 24 22 22
Wind_Direction
205 209 217 218 217 210 210 214 203 177 173 177 178 175 174 175 195 221 229 222 224 229 235 242 237 235 229 226 229 231 222 208 190 171 177 163 169 186 181 179 169 181 179
196 201 207 196 191 193 196 190 174 171 170 172 166 165 167 187 215 227 232 237 237 242 246 246 239 227 216 231 219 211 203 206 200 166 157 150 161 164 162 168 172 177 171
178 186 181 182 183 187 183 175 167 165 159 159 157 178 193 197 202 228 242 237 244 245 244 241 233 220 246 216 213 200 202 201 186 180 161 164 159 169 169 168 168 167 164
178 176 173 171 174 175 168 170 167 158 155 168 171 183 191 191 203 220 245 247 254 254 247 228 218 237 208 207 196 195 188 172 177 182 170 168 166 168 169 168 162 161 157
171 166 160 161 162 159 158 157 155 158 163 173 175 168 180 200 212 236 255 269 263 241 218 229 225 203 201 206 188 186 184 182 179 186 173 172 173 175 175 171 162 160 158
158 156 159 160 154 151 149 158 160 171 168 172 172 179 188 203 227 248 263 247 235 217 209 194 184 188 196 183 184 188 197 191 184 185 184 176 177 179 176 174 169 163 158
150 151 154 153 151 149 155 161 165 168 167 171 181 192 203 214 237 243 218 193 147 151 156 158 162 156 152 160 160 178 184 184 210 204 202 185 183 180 178 177 177 173 171
147 148 151 157 156 156 161 162 167 169 172 181 182 194 208 215 213 194 167 144 138 134 149 153 156 149 145 152 156 162 157 162 183 208 211 188 180 176 179 179 184 179 173
147 153 160 158 154 161 165 166 174 175 172 180 194 197 201 196 183 177 165 160 156 152 164 159 156 167 151 161 162 159 155 160 148 143 164 164 163 173 179 182 184 180 175
158 160 159 156 160 165 162 164 170 177 176 181 182 179 173 182 171 172 168 164 179 170 179 184 182 168 157 159 162 163 161 157 149 152 157 155 162 169 185 198 189 181 177
164 151 152 155 162 166 164 165 174 172 170 168 172 167 171 171 172 171 178 191 184 173 172 174 170 163 164 165 172 172 164 156 150 152 153 157 164 169 187 194 204 205 190
142 141 145 157 166 163 166 169 165 166 173 171 174 152 155 153 157 152 157 167 163 171 167 168 170 160 167 165 164 169 173 164 160 161 155 161 166 171 179 184 191 201 194
143 143 147 153 158 162 166 169 176 177 185 185 189 165 162 156 155 152 154 158 161 162 164 168 156 155 156 152 158 160 170 172 173 168 166 165 170 175 177 190 190 199 207
143 145 151 157 152 151 165 182 183 186 192 193 182 167 177 165 161 156 163 169 172 158 163 156 153 152 151 156 161 167 171 179 187 181 178 173 172 179 188 189 187 189 185
148 150 148 153 157 169 176 180 185 188 197 203 192 175 190 165 152 152 164 172 167 163 156 151 156 155 153 157 162 172 175 178 181 182 182 177 175 179 184 182 184 191 182
151 154 153 160 169 172 175 168 163 165 170 181 178 178 168 155 145 139 138 141 148 152 152 156 154 155 153 156 158 164 171 174 177 182 183 183 186 183 187 183 186 185 185
156 156 159 160 162 167 162 158 145 140 147 146 154 130 156 144 149 146 139 143 152 153 156 158 156 153 158 158 173 173 173 169 175 175 177 184 183 177 169 172 178 190 207
159 159 159 155 150 149 145 150 151 150 149 150 147 148 147 145 145 138 137 133 138 151 155 158 159 157 157 152 146 154 156 153 148 160 173 181 176 177 178 186 203 218 212
174 177 172 162 159 146 136 132 141 150 153 153 149 146 144 141 137 132 126 122 126 132 148 160 162 163 153 146 143 138 150 152 154 159 163 173 176 191 199 194 191 207 224
171 176 181 163 159 157 150 150 144 144 158 153 150 148 146 149 145 138 131 126 125 120 134 148 151 151 163 165 167 163 156 171 173 177 184 191 199 207 212 227 235 243 253
170 157 158 155 162 159 157 149 144 144 146 148 150 153 154 156 151 141 142 139 143 131 129 135 152 152 155 160 167 175 182 169 190 199 214 221 215 217 229 230 242 257 259
168 164 165 163 161 169 156 149 144 142 133 135 140 141 145 151 153 154 146 142 152 173 157 147 155 167 185 188 194 201 206 210 214 219 211 209 216 219 226 235 245 248 260
163 163 172 176 164 164 159 152 149 155 143 140 129 123 120 132 145 152 151 159 174 202 179 178 188 201 215 213 220 219 224 229 234 233 243 231 245 256 257 269 259 262 262
144 156 154 162 169 169 164 151 146 144 137 134 126 128 143 162 174 169 175 188 197 188 189 199 202 199 214 218 222 237 239 238 233 246 236 227 227 250 253 254 269 276 283
144 139 138 140 146 153 169 151 149 146 145 151 151 146 144 138 140 147 149 154 146 136 135 144 155 152 157 148 161 172 166 176 193 209 216 226 250 262 265 273 284 296 299
148 157 144 141 152 142 154 163 152 156 159 161 158 156 157 153 146 142 139 140 136 134 138 136 128 120 121 121 124 128 37 347 266 276 275 274 271 271 272 276 281 291 304